When you browse on this site, cookies collect data to enhance your experience and personalize the content and advertising you see.
Visit our Privacy Policy to learn more. By continuing to use the site, you agree to this use of cookies and data.
  • în România
  • Lista ţărilor
  • Pe 7 zile
  • Temperatura apei
  • Hartă satelitară
  • Meteo pe hartă
  • Widget-uri
  • user-avatar
    Intrare

    Meteo pe oră la Mogilno

    Astăzi, 22 Mai, Miercuri

    Timp Temperatura Precipitaţii Vânt Presiune Umiditate
    00:00 +15°C° 0 mm 2 m/s 744 mmHg 95%
    01:00 +15°C° 0 mm 2 m/s 744 mmHg 96%
    02:00 +15°C° 0.1 mm 2 m/s 744 mmHg 96%
    03:00 +14°C° 0.1 mm 2 m/s 744 mmHg 96%
    04:00 +14°C° 0.1 mm 2 m/s 745 mmHg 96%
    05:00 +15°C° 0 mm 2 m/s 745 mmHg 92%
    06:00 +16°C° 0 mm 2 m/s 745 mmHg 88%
    07:00 +17°C° 0 mm 2 m/s 745 mmHg 82%
    08:00 +18°C° 0 mm 2 m/s 746 mmHg 76%
    09:00 +19°C° 0 mm 3 m/s 746 mmHg 70%
    10:00 +20°C° 0 mm 3 m/s 746 mmHg 64%
    11:00 +21°C° 0.1 mm 3 m/s 746 mmHg 61%
    12:00 +22°C° 0.1 mm 3 m/s 746 mmHg 59%
    13:00 +24°C° 0.1 mm 3 m/s 746 mmHg 56%
    14:00 +22°C° 0.1 mm 3 m/s 746 mmHg 58%
    15:00 +22°C° 0.1 mm 4 m/s 746 mmHg 60%
    16:00 +22°C° 0.1 mm 4 m/s 747 mmHg 63%
    17:00 +21°C° 0.9 mm 4 m/s 747 mmHg 71%
    18:00 +19°C° 0.9 mm 5 m/s 747 mmHg 79%
    19:00 +17°C° 0.9 mm 5 m/s 747 mmHg 88%
    20:00 +16°C° 0.9 mm 6 m/s 748 mmHg 90%
    21:00 +15°C° 0.9 mm 6 m/s 748 mmHg 93%
    22:00 +14°C° 0.9 mm 6 m/s 748 mmHg 95%
    23:00 +14°C° 0.2 mm 6 m/s 749 mmHg 95%

    Mâine, 23 Mai, Joi

    Timp Temperatura Precipitaţii Vânt Presiune Umiditate
    00:00 +14°C° 0.2 mm 6 m/s 749 mmHg 94%
    01:00 +14°C° 0.2 mm 6 m/s 749 mmHg 94%
    02:00 +13°C° 0 mm 6 m/s 749 mmHg 94%
    03:00 +13°C° 0 mm 6 m/s 750 mmHg 93%
    04:00 +13°C° 0 mm 6 m/s 750 mmHg 93%
    05:00 +11°C° 0 mm 6 m/s 750 mmHg 93%
    06:00 +11°C° 0 mm 6 m/s 750 mmHg 92%
    07:00 +11°C° 0 mm 6 m/s 751 mmHg 91%
    08:00 +13°C° 0 mm 6 m/s 751 mmHg 89%
    09:00 +13°C° 0 mm 6 m/s 751 mmHg 86%
    10:00 +14°C° 0 mm 6 m/s 752 mmHg 84%
    11:00 +15°C° 0 mm 6 m/s 752 mmHg 79%
    12:00 +16°C° 0 mm 6 m/s 752 mmHg 75%
    13:00 +17°C° 0 mm 6 m/s 752 mmHg 71%
    14:00 +17°C° 0 mm 6 m/s 752 mmHg 69%
    15:00 +17°C° 0 mm 6 m/s 752 mmHg 68%
    16:00 +17°C° 0 mm 6 m/s 752 mmHg 66%
    17:00 +16°C° 0 mm 5 m/s 752 mmHg 67%
    18:00 +15°C° 0 mm 5 m/s 752 mmHg 68%
    19:00 +14°C° 0 mm 4 m/s 752 mmHg 69%
    20:00 +13°C° 0 mm 4 m/s 753 mmHg 67%
    21:00 +12°C° 0 mm 4 m/s 753 mmHg 65%
    22:00 +11°C° 0 mm 4 m/s 753 mmHg 63%
    23:00 +10°C° 0 mm 3 m/s 753 mmHg 70%

    Poimâine, 24 Mai, Vineri

    Timp Temperatura Precipitaţii Vânt Presiune Umiditate
    00:00 +9°C° 0 mm 3 m/s 753 mmHg 77%
    01:00 +8°C° 0 mm 3 m/s 753 mmHg 84%
    02:00 +7°C° 0 mm 3 m/s 753 mmHg 86%
    03:00 +7°C° 0 mm 3 m/s 753 mmHg 89%
    04:00 +7°C° 0 mm 3 m/s 752 mmHg 91%
    05:00 +9°C° 0 mm 3 m/s 753 mmHg 87%
    06:00 +11°C° 0 mm 3 m/s 753 mmHg 82%
    07:00 +13°C° 0 mm 3 m/s 753 mmHg 78%
    08:00 +14°C° 0 mm 3 m/s 753 mmHg 74%
    09:00 +17°C° 0 mm 3 m/s 752 mmHg 69%
    10:00 +18°C° 0 mm 3 m/s 752 mmHg 64%
    11:00 +19°C° 0.1 mm 3 m/s 752 mmHg 62%
    12:00 +20°C° 0.1 mm 3 m/s 752 mmHg 60%
    13:00 +20°C° 0.1 mm 3 m/s 752 mmHg 59%
    14:00 +20°C° 0.1 mm 2 m/s 751 mmHg 61%
    15:00 +20°C° 0.1 mm 2 m/s 751 mmHg 64%
    16:00 +20°C° 0.1 mm 2 m/s 750 mmHg 67%
    17:00 +19°C° 0 mm 2 m/s 750 mmHg 70%
    18:00 +18°C° 0 mm 2 m/s 750 mmHg 72%
    19:00 +17°C° 0 mm 2 m/s 750 mmHg 75%
    20:00 +16°C° 0 mm 2 m/s 750 mmHg 77%
    21:00 +15°C° 0 mm 2 m/s 750 mmHg 79%
    22:00 +14°C° 0 mm 2 m/s 750 mmHg 81%
    23:00 +13°C° 0 mm 2 m/s 750 mmHg 82%

    25 Mai, Sâmbătă

    Timp Temperatura Precipitaţii Vânt Presiune Umiditate
    00:00 +13°C° 0 mm 2 m/s 750 mmHg 83%
    01:00 +11°C° 0 mm 3 m/s 749 mmHg 84%
    02:00 +12°C° 0 mm 3 m/s 749 mmHg 83%
    03:00 +12°C° 0 mm 3 m/s 749 mmHg 82%
    04:00 +12°C° 0 mm 3 m/s 749 mmHg 81%
    05:00 +13°C° 0 mm 3 m/s 749 mmHg 81%
    06:00 +14°C° 0 mm 3 m/s 749 mmHg 81%
    07:00 +16°C° 0 mm 3 m/s 750 mmHg 81%
    08:00 +17°C° 0 mm 4 m/s 750 mmHg 76%
    09:00 +18°C° 0 mm 4 m/s 750 mmHg 72%
    10:00 +19°C° 0 mm 5 m/s 750 mmHg 67%
    11:00 +19°C° 0 mm 5 m/s 750 mmHg 63%
    12:00 +19°C° 0 mm 5 m/s 750 mmHg 60%
    13:00 +20°C° 0 mm 6 m/s 750 mmHg 56%
    14:00 +20°C° 0 mm 6 m/s 750 mmHg 58%
    15:00 +19°C° 0 mm 6 m/s 749 mmHg 60%
    16:00 +19°C° 0 mm 6 m/s 749 mmHg 63%
    17:00 +16°C° 0 mm 5 m/s 749 mmHg 69%
    18:00 +15°C° 0 mm 4 m/s 749 mmHg 74%
    19:00 +13°C° 0 mm 4 m/s 749 mmHg 80%
    20:00 +12°C° 0 mm 3 m/s 750 mmHg 83%
    21:00 +11°C° 0 mm 3 m/s 750 mmHg 86%
    22:00 +10°C° 0 mm 3 m/s 750 mmHg 88%
    23:00 +10°C° 0 mm 3 m/s 750 mmHg 88%

    26 Mai, Duminică

    Timp Temperatura Precipitaţii Vânt Presiune Umiditate
    00:00 +10°C° 0 mm 3 m/s 750 mmHg 89%
    01:00 +10°C° 0 mm 3 m/s 750 mmHg 89%
    02:00 +9°C° 0 mm 3 m/s 749 mmHg 91%
    03:00 +8°C° 0 mm 4 m/s 749 mmHg 92%
    04:00 +7°C° 0 mm 4 m/s 749 mmHg 94%
    05:00 +8°C° 0 mm 5 m/s 749 mmHg 89%
    06:00 +9°C° 0 mm 6 m/s 749 mmHg 84%
    07:00 +10°C° 0 mm 6 m/s 749 mmHg 78%
    08:00 +10°C° 0.1 mm 7 m/s 749 mmHg 77%
    09:00 +10°C° 0.1 mm 7 m/s 749 mmHg 76%
    10:00 +11°C° 0.1 mm 7 m/s 749 mmHg 75%
    11:00 +11°C° 0.2 mm 7 m/s 749 mmHg 74%
    12:00 +11°C° 0.2 mm 8 m/s 748 mmHg 73%
    13:00 +11°C° 0.2 mm 8 m/s 748 mmHg 73%
    14:00 +11°C° 0.1 mm 8 m/s 748 mmHg 73%
    15:00 +10°C° 0.1 mm 8 m/s 748 mmHg 73%
    16:00 +10°C° 0.1 mm 8 m/s 748 mmHg 73%
    17:00 +9°C° 0 mm 7 m/s 748 mmHg 73%
    18:00 +9°C° 0 mm 6 m/s 748 mmHg 74%
    19:00 +9°C° 0 mm 6 m/s 748 mmHg 74%
    20:00 +8°C° 0 mm 5 m/s 748 mmHg 74%
    21:00 +7°C° 0 mm 5 m/s 748 mmHg 75%
    22:00 +6°C° 0 mm 5 m/s 749 mmHg 75%
    23:00 +6°C° 0 mm 5 m/s 749 mmHg 76%

    27 Mai, Luni

    Timp Temperatura Precipitaţii Vânt Presiune Umiditate
    00:00 +6°C° 0 mm 4 m/s 749 mmHg 78%
    01:00 +5°C° 0 mm 4 m/s 749 mmHg 80%
    02:00 +5°C° 0 mm 4 m/s 749 mmHg 84%
    03:00 +4°C° 0 mm 4 m/s 749 mmHg 88%
    04:00 +4°C° 0 mm 4 m/s 749 mmHg 93%
    05:00 +5°C° 0 mm 4 m/s 749 mmHg 87%
    06:00 +7°C° 0 mm 4 m/s 749 mmHg 81%
    07:00 +8°C° 0 mm 4 m/s 749 mmHg 76%
    08:00 +11°C° 0 mm 4 m/s 749 mmHg 70%
    09:00 +12°C° 0 mm 4 m/s 749 mmHg 65%
    10:00 +14°C° 0 mm 4 m/s 749 mmHg 60%
    11:00 +15°C° 0 mm 4 m/s 749 mmHg 60%
    12:00 +17°C° 0 mm 4 m/s 749 mmHg 59%
    13:00 +18°C° 0 mm 4 m/s 748 mmHg 59%
    14:00 +18°C° 0 mm 4 m/s 748 mmHg 63%
    15:00 +19°C° 0 mm 4 m/s 747 mmHg 66%
    16:00 +19°C° 0 mm 3 m/s 747 mmHg 69%
    17:00 +18°C° 0.4 mm 3 m/s 746 mmHg 75%
    18:00 +17°C° 0.4 mm 3 m/s 746 mmHg 81%
    19:00 +17°C° 0.4 mm 3 m/s 746 mmHg 87%
    20:00 +16°C° 1.2 mm 3 m/s 745 mmHg 89%
    21:00 +16°C° 1.2 mm 3 m/s 745 mmHg 92%
    22:00 +14°C° 1.2 mm 3 m/s 745 mmHg 94%
    23:00 +14°C° 0.2 mm 2 m/s 745 mmHg 94%
    Arată mai mult